This is the latest recevied weather packets stored in our database for station/object OE-11349. If no packets are shown the sender has not sent any weather packets the latest 10 day(s).
| Time | Temp. | Humidity | Pressure | Rain* | Wind** | Luminosity | Snow |
|---|---|---|---|---|---|---|---|
| 1788009082 | 14.44° C | 66% | 853.5 hPa | - | - | 206 W/m² | - |
| 1788008709 | 14.44° C | 66% | 853.6 hPa | - | - | 234 W/m² | - |
| 1788008109 | 14.44° C | 67% | 853.5 hPa | - | - | 186 W/m² | - |
| 1788007282 | 13.89° C | 70% | 853.5 hPa | - | - | 206 W/m² | - |
| 1788006909 | 14.44° C | 70% | 853.6 hPa | - | - | 241 W/m² | - |
| 1788006309 | 14.44° C | 73% | 853.6 hPa | - | - | 193 W/m² | - |
| 1788005481 | 13.89° C | 71% | 853.7 hPa | - | - | 241 W/m² | - |
| 1788005109 | 14.44° C | 71% | 853.8 hPa | - | - | 193 W/m² | - |
| 1788004509 | 13.89° C | 68% | 853.8 hPa | - | - | 289 W/m² | - |
| 1788003682 | 13.89° C | 71% | 853.8 hPa | - | - | 268 W/m² | - |
| 1788003309 | 13.89° C | 67% | 853.8 hPa | - | - | 206 W/m² | - |
| 1788002709 | 13.89° C | 71% | 853.9 hPa | - | - | 179 W/m² | - |
| 1788001882 | 13.89° C | 66% | 853.8 hPa | - | - | 227 W/m² | - |
| 1788001509 | 13.89° C | 65% | 853.9 hPa | - | - | 220 W/m² | - |
| 1788000909 | 13.89° C | 65% | 853.8 hPa | - | - | 227 W/m² | - |
| 1788000082 | 13.89° C | 70% | 853.8 hPa | - | - | 220 W/m² | - |
| 1787999709 | 13.89° C | 66% | 853.8 hPa | - | - | 165 W/m² | - |
| 1787999109 | 13.89° C | 67% | 853.8 hPa | - | - | 296 W/m² | - |
| 1787998282 | 14.44° C | 61% | 853.7 hPa | - | - | 330 W/m² | - |
| 1787997908 | 13.89° C | 62% | 853.8 hPa | - | - | 310 W/m² | - |
| 1787997309 | 13.89° C | 60% | 853.8 hPa | - | - | 289 W/m² | - |
| 1787996482 | 13.33° C | 60% | 853.9 hPa | - | - | 351 W/m² | - |
| 1787996109 | 13.33° C | 59% | 853.9 hPa | - | - | 282 W/m² | - |
| 1787995509 | 13.33° C | 59% | 854 hPa | - | - | 399 W/m² | - |
| 1787994682 | 13.33° C | 63% | 854.1 hPa | - | - | 275 W/m² | - |
* Rain since midnight (hover to see other rain measurements)
** Current wind speed in m/s (hover to see current wind gust speed)